This is the latest recevied weather packets stored in our database for station/object K3MV-13. If no packets are shown the sender has not sent any weather packets the latest 10 day(s).
| Time | Temp. | Humidity | Pressure | Rain* | Wind** | Luminosity | Snow |
|---|---|---|---|---|---|---|---|
| 1777996187 | 21.11° C | 48% | 1011 hPa | 0 mm | - | 801 W/m² | - |
| 1777995884 | 20.56° C | 46% | 1011.3 hPa | 0 mm | - | 834 W/m² | - |
| 1777995580 | 21.11° C | 47% | 1011.4 hPa | 0 mm | - | 271 W/m² | - |
| 1777995278 | 21.11° C | 47% | 1011.5 hPa | 0 mm | - | 802 W/m² | - |
| 1777994974 | 20.56° C | 48% | 1011.4 hPa | 0 mm | - | 708 W/m² | - |
| 1777994672 | 20.56° C | 49% | 1011.5 hPa | 0 mm | - | 626 W/m² | - |
| 1777994372 | 20.56° C | 49% | 1011.8 hPa | 0 mm | - | 368 W/m² | - |
| 1777994067 | 20° C | 50% | 1011.6 hPa | 0 mm | - | 758 W/m² | - |
| 1777993765 | 20° C | 49% | 1011.5 hPa | 0 mm | - | 299 W/m² | - |
| 1777993462 | 20° C | 50% | 1011.5 hPa | 0 mm | - | 290 W/m² | - |
| 1777993156 | 19.44° C | 52% | 1011.6 hPa | 0 mm | - | 415 W/m² | - |
| 1777992855 | 19.44° C | 51% | 1011.3 hPa | 0 mm | - | 717 W/m² | - |
| 1777992552 | 18.89° C | 54% | 1011.3 hPa | 0 mm | - | 311 W/m² | - |
| 1777992251 | 19.44° C | 54% | 1011.4 hPa | 0 mm | - | 181 W/m² | - |
| 1777991947 | 19.44° C | 53% | 1011.2 hPa | 0 mm | - | 249 W/m² | - |
| 1777991645 | 20° C | 52% | 1011.3 hPa | 0 mm | - | 399 W/m² | - |
| 1777991342 | 20° C | 53% | 1011.4 hPa | 0 mm | - | 247 W/m² | - |
| 1777991039 | 19.44° C | 51% | 1011.3 hPa | 0 mm | - | 408 W/m² | - |
| 1777990736 | 18.89° C | 54% | 1011.4 hPa | 0 mm | - | 431 W/m² | - |
| 1777990433 | 18.89° C | 53% | 1011.5 hPa | 0 mm | - | 320 W/m² | - |
| 1777989826 | 18.89° C | 53% | 1011.6 hPa | 0 mm | - | 215 W/m² | - |
| 1777989524 | 19.44° C | 53% | 1011.3 hPa | 0 mm | - | 281 W/m² | - |
| 1777989220 | 18.89° C | 54% | 1010.9 hPa | 0 mm | - | 341 W/m² | - |
| 1777988916 | 18.89° C | 54% | 1011.3 hPa | 0 mm | - | 171 W/m² | - |
| 1777988613 | 19.44° C | 52% | 1011.2 hPa | 0 mm | - | 396 W/m² | - |
* Rain latest hour (hover to see other rain measurements)
** Current wind speed in m/s (hover to see current wind gust speed)